Peru, IN

4:36 PM EDT on May 28, 2017 (GMT -0400)
Grissom Air Reserve Base

Weather History for KGUS - May, 2013

Change the Weather History Date:

Thursday, May 16, 2013

  Actual Average Record
Temperature  
Mean Temperature 68 °F -  
Max Temperature 81 °F 69 °F 84 °F (1998)
Min Temperature 57 °F 52 °F 36 °F (2016)
Cooling Degree Days 4    
Growing Degree Days 18 (Base 50)    
Moisture  
Dew Point 53 °F    
Average Humidity 56    
Maximum Humidity 93    
Minimum Humidity 32    
Precipitation  
Precipitation 0.00 in - - ()
Sea Level Pressure  
Sea Level Pressure 29.90 in    
Wind  
Wind Speed 5 mph (East)    
Max Wind Speed 8 mph    
Max Gust Speed -    
Visibility 10 miles    
Events      
Averages and records for this station are not official NWS values.
T = Trace of Precipitation, MM = Missing Value Source: NWS Daily Summary

Daily Weather History Graph

Daily Weather History Graph

Search for Another Location

Airport or City:

Trip Planner

Search our weather history database for the weather conditions in past years. The results will help you decide how hot, cold, wet, or windy it might be!

Date:

Astronomy

May. 16, 2013 Rise Set
Actual Time 6:26 AM EDT 8:55 PM EDT
Civil Twilight 5:55 AM EDT 9:27 PM EDT
Nautical Twilight 5:16 AM EDT 10:06 PM EDT
Astronomical Twilight 4:33 AM EDT 10:49 PM EDT
Moon 11:59 AM EDT (5/16) 1:15 AM EDT (5/16)
Length of Visible Light 15h 31m
Length of Day
14h 29m
Waxing Crescent, 35% of the Moon is Illuminated
May 16
Waxing Crescent
May 18
First Quarter
May 25
Full
May 31
Last Quarter
Jun 8
New

Hourly Weather History & Observations

Time (EDT) Temp. Dew Point Humidity Pressure Visibility Wind Dir Wind Speed Gust Speed Precip Events Conditions
12:24 AM 68.0 °F 55.4 °F 64% 29.82 in 10.0 mi South 5.8 mph - N/A   Light Drizzle
12:27 AM 68.0 °F 57.2 °F 68% 29.82 in 10.0 mi South 5.8 mph - N/A   Mostly Cloudy
12:58 AM 68.0 °F 56.5 °F 67% 29.83 in 10.0 mi South 5.8 mph - 0.00 in   Mostly Cloudy
1:58 AM 68.5 °F 56.3 °F 65% 29.83 in 10.0 mi NNE 8.1 mph - N/A   Overcast
1:59 AM 68.0 °F 55.4 °F 64% 29.84 in 10.0 mi NNE 6.9 mph - N/A   Light Drizzle
2:11 AM 69.8 °F 57.2 °F 64% 29.84 in 10.0 mi West 6.9 mph - N/A   Mostly Cloudy
2:58 AM 69.3 °F 56.5 °F 64% 29.84 in 10.0 mi NW 3.5 mph - 0.00 in   Partly Cloudy
3:58 AM 62.2 °F 57.4 °F 84% 29.84 in 10.0 mi NE 5.8 mph - N/A   Partly Cloudy
4:58 AM 61.3 °F 55.4 °F 81% 29.84 in 10.0 mi NE 5.8 mph - N/A   Clear
5:58 AM 59.7 °F 55.4 °F 86% 29.86 in 10.0 mi South 4.6 mph - N/A   Clear
6:58 AM 57.2 °F 55.2 °F 93% 29.88 in 10.0 mi NE 5.8 mph - N/A   Clear
7:58 AM 61.5 °F 56.1 °F 82% 29.90 in 10.0 mi NE 5.8 mph - N/A   Mostly Cloudy
8:58 AM 69.8 °F 52.9 °F 55% 29.91 in 10.0 mi ESE 8.1 mph - N/A   Mostly Cloudy
9:58 AM 72.0 °F 52.2 °F 50% 29.93 in 10.0 mi East 6.9 mph - N/A   Mostly Cloudy
10:30 AM 71.6 °F 51.8 °F 50% 29.91 in 10.0 mi East 6.9 mph - N/A   Overcast
10:50 AM 71.6 °F 51.8 °F 50% 29.93 in 10.0 mi ESE 4.6 mph - N/A   Light Drizzle
10:58 AM 71.6 °F 53.6 °F 53% 29.93 in 10.0 mi ESE 4.6 mph - 0.00 in   Light Drizzle
11:00 AM 71.6 °F 53.6 °F 53% 29.93 in 10.0 mi ESE 4.6 mph - N/A   Mostly Cloudy
11:58 AM 74.8 °F 53.1 °F 47% 29.93 in 10.0 mi NE 3.5 mph - 0.00 in   Mostly Cloudy
12:58 PM 77.7 °F 49.1 °F 36% 29.94 in 10.0 mi Variable 4.6 mph - N/A   Partly Cloudy
1:58 PM 78.1 °F 47.1 °F 33% 29.94 in 10.0 mi SSE 5.8 mph - N/A   Mostly Cloudy
2:58 PM 78.6 °F 53.2 °F 41% 29.93 in 10.0 mi South 6.9 mph - N/A   Mostly Cloudy
3:58 PM 77.7 °F 49.8 °F 37% 29.93 in 10.0 mi NE 3.5 mph - N/A   Overcast
4:58 PM 79.7 °F 48.7 °F 34% 29.91 in 10.0 mi Variable 1.2 mph - N/A   Scattered Clouds
5:58 PM 79.5 °F 47.3 °F 32% 29.91 in 10.0 mi Variable 1.2 mph - N/A   Clear
6:58 PM 80.2 °F 49.1 °F 34% 29.91 in 10.0 mi Calm Calm - N/A   Clear
7:58 PM 76.5 °F 54.0 °F 46% 29.92 in 10.0 mi Calm Calm - N/A   Clear
8:58 PM 73.9 °F 49.8 °F 43% 29.93 in 10.0 mi ENE 3.5 mph - N/A   Clear
9:58 PM 69.3 °F 49.6 °F 50% 29.94 in 10.0 mi ESE 5.8 mph - N/A   Clear
10:58 PM 66.7 °F 48.9 °F 53% 29.96 in 10.0 mi ESE 5.8 mph - N/A   Clear
11:58 PM 65.8 °F 48.7 °F 54% 29.97 in 10.0 mi ESE 2.3 mph - N/A   Partly Cloudy